Location: Vancouver
(49.2500°N, 123.1330°W)
Time: 22:21:43
(UTC-07:00)

Iridium 21 - Visible Passes

Search period start: 20 October 2014 00:00
Search period end: 30 October 2014 00:00
Orbit: 776 x 779 km, 86.4° (Epoch: 19 October)

Date Brightness Start Highest point End Pass type
(mag) Time Alt. Az. Time Alt. Az. Time Alt. Az.
20 Oct 7.4 03:49:31 10° NNE 03:53:57 27° ENE 03:54:16 27° E visible
20 Oct 5.8 05:29:55 10° NNW 05:34:37 45° WNW 05:34:37 45° WNW visible
21 Oct 8.1 03:16:45 10° NNE 03:19:26 16° ENE 03:19:26 16° ENE visible
21 Oct 6.1 04:56:13 10° N 04:59:50 45° NNW 04:59:50 45° NNW visible
21 Oct 7.4 06:39:26 10° NW 06:40:13 11° WNW 06:40:13 11° WNW visible
22 Oct 7.0 04:22:42 10° N 04:25:22 30° NNE 04:25:22 30° NNE visible
22 Oct 7.3 06:04:24 10° NNW 06:05:46 15° NW 06:05:46 15° NW visible
22 Oct 8.6 19:08:54 10° W 19:10:44 12° WNW 19:12:35 10° NW visible
23 Oct 7.8 03:49:23 10° N 03:51:06 19° NNE 03:51:06 19° NNE visible
23 Oct 7.4 05:30:14 10° NNW 05:31:31 17° NNW 05:31:31 17° NNW visible
23 Oct 8.2 18:33:00 10° WSW 18:36:44 20° WNW 18:40:30 10° NNW visible
24 Oct 8.3 03:16:20 10° NNE 03:16:58 13° NNE 03:16:58 13° NNE visible
24 Oct 7.6 04:56:24 10° NNW 04:57:23 16° NNW 04:57:23 16° NNW visible
25 Oct 7.9 04:22:46 10° N 04:23:21 13° N 04:23:21 13° N visible
26 Oct 8.3 03:49:19 10° N 03:49:24 10° N 03:49:24 10° N visible
26 Oct 8.3 18:34:17 10° W 18:37:06 15° WNW 18:39:56 10° NW visible
29 Oct 8.6 18:36:37 10° WNW 18:37:31 10° WNW 18:38:25 10° NW visible
